Regional Weather Roundup
Issued by NWS

Home | Current Version | Previous Version | Text Only | Print | Product List | Glossary Off
Versions: 1 2 3 4 5 6 7 8 9 10 11 12 13 14 15 16 17 18 19 20 21 22 23 24 25 26 27 28 29 30 31 32 33 34 35 36 37 38 39 40 41 42 43 44 45 46 47 48 49 50

000
ASUS43 KLOT 042100
RWRIL

ILLINOIS REGIONAL WEATHER ROUNDUP
NATIONAL WEATHER SERVICE CHICAGO/ROMEOVILLE IL
400 PM CDT TUE AUG 04 2015

NOTE: "FAIR" INDICATES FEW OR NO CLOUDS BELOW 12,000 FEET WITH NO
SIGNIFICANT WEATHER AND/OR OBSTRUCTIONS TO VISIBILITY.

* THESE STATIONS ARE NOT UNDER NWS QUALITY CONTROL. THEY ALSO MAY NOT
  REPORT WEATHER SUCH AS PRECIPITATION OR FOG.

ILZ001-002-007-009-015-016-024-042200-
NORTHWEST ILLINOIS

CITY           SKY/WX    TMP DP  RH WIND       PRES   REMARKS
MOLINE         CLOUDY    82  59  45 N5        29.96F HX  82
STERLING*      CLOUDY    81  59  47 NW6       29.96F HX  81
$$

ILZ003-004-008-010-011-017-018-042200-
NORTH CENTRAL ILLINOIS

CITY           SKY/WX    TMP DP  RH WIND       PRES   REMARKS
ROCKFORD       CLOUDY    82  50  32 NW12      29.99F HX  81
$$

ILZ005-006-012>014-019>023-042200-
NORTHEAST ILLINOIS

CITY           SKY/WX    TMP DP  RH WIND       PRES   REMARKS
CHICAGO-OHARE  PTSUNNY   80  53  39 NW15G21   29.96F HX  80
CHICAGO-MIDWAY PTSUNNY   82  52  35 NW16      29.96F HX  81
AURORA         PTSUNNY   79  57  46 W9        29.99F HX  80
WAUKEGAN       PTSUNNY   76  56  49 VRB5      29.97S
DUPAGE AIRPORT PTSUNNY   78  52  40 W13       29.98S
WHEELING       MOSUNNY   81  51  35 NW12      29.98S HX  80
NORTHERLY ISL    N/A     78  56  46 SW1         N/A
$$

LMZ740>746-042200-
SOUTHERN LAKE MICHIGAN

STATION/POSITION SKY/WX   TEMP    WIND        PRES    VSBY  WAVE
                          AIR SEA DIR/SP/G                  HT/PER
                          (F)     (DEG/KT/KT) (MB)    (MI)  (FT/S)
HARRISON CRIB              75     110/  7/  9   N/A
BURNHAM HARBOR             80     300/ 10/ 15   N/A
CALUMET HARBOR             78      40/  4/  6   N/A
BURNS HARBOR               77      10/  6/  7 1015.2S
MICHIGAN CITY              80     320/  3/  4   N/A
MICHIGAN CITY 6N           76 77  360/  4/  6   N/A           1
ST. JOSEPH                 74 74  260/  6/  6   N/A           1/ 3
$$

ILZ025>027-034>036-040-047-049-050-058-095>099-042200-
WEST-CENTRAL ILLINOIS

CITY           SKY/WX    TMP DP  RH WIND       PRES   REMARKS
QUINCY         CLOUDY    77  59  53 E7        29.99F
MACOMB*        CLOUDY    77  63  62 W7        30.02R
$$

ILZ028>032-037-038-041>044-048-051>054-059>061-042200-
CENTRAL ILLINOIS

CITY           SKY/WX    TMP DP  RH WIND       PRES   REMARKS
DECATUR        CLOUDY    79  61  53 SW3       30.00F HX  80
PEORIA         CLOUDY    81  60  48 NW5       29.98F HX  82
SPRINGFIELD    CLOUDY    79  64  60 W3        30.00F HX  81
TAYLORVILLE    NOT AVBL
$$

ILZ033-039-045-046-055>057-062-063-042200-
EAST-CENTRAL ILLINOIS

CITY           SKY/WX    TMP DP  RH WIND       PRES   REMARKS
CHAMPAIGN      MOSUNNY   80  60  50 W5        30.02F HX  81
MATTOON        LGT RAIN  73  63  70 CALM      30.00F
$$

ILZ079-100>102-042200-
SOUTHWEST ILLINOIS

CITY           SKY/WX    TMP DP  RH WIND       PRES   REMARKS
ALTON          PTSUNNY   81  70  69 N7        29.97F HX  84
BELLEVILLE     PTSUNNY   88  75  64 NE10      29.94F HX  97
CAHOKIA*       PTSUNNY   90  70  51 N14       29.95F HX  95
$$

ILZ064>066-069>071-074>076-080>082-084>086-088>090-092>094-042200-
SOUTH-CENTRAL ILLINOIS

CITY           SKY/WX    TMP DP  RH WIND       PRES   REMARKS
CARBONDALE     PTSUNNY   91  73  55 W8        29.95F HX  99
MARION         PTSUNNY   91  72  52 SW14      29.95F HX  98
MT. VERNON     PTSUNNY   90  72  55 NW5       29.96F HX  96
SALEM*         PTSUNNY   88  71  57 N12       29.98S HX  93
$$

ILZ067-068-072-073-078-083-087-091-042200-
SOUTHEAST ILLINOIS

CITY           SKY/WX    TMP DP  RH WIND       PRES   REMARKS
LAWRENCEVILLE  PTSUNNY   84  68  58 N8        29.98F HX  87
FLORA*         MOSUNNY   84  69  61 N12G20    29.98S HX  87
HARRISBURG*    PTSUNNY   83  65  54 CALM      29.95F THUNDER HAZE
ROBINSON*      PTSUNNY   80  66  61 NW7       30.02R HX  82
CARMI*         PTSUNNY   88  71  56 N7        29.93F HX  93
$$

ABBREVIATIONS USED IN REMARKS
   TC - TEMPERATURE IN CELSIUS
  WCI - WIND CHILL INDEX
   HX - HEAT INDEX
  VSB - VISIBILITY
$$




USA.gov is the U.S. government's official web portal to all federal, state and local government web resources and services.